This is the latest recevied weather packets stored in our database for station/object N4YH-13. If no packets are shown the sender has not sent any weather packets the latest 10 day(s).
| Time | Temp. | Humidity | Pressure | Rain* | Wind** | Luminosity | Snow |
|---|---|---|---|---|---|---|---|
| 1778086684 | 18.89° C | 98% | 1011.8 hPa | 0 mm | - | - | - |
| 1778086564 | 18.33° C | 98% | 1011.7 hPa | 0.25 mm | - | - | - |
| 1778086444 | 18.33° C | 98% | 1011.7 hPa | 0.25 mm | - | - | - |
| 1778086323 | 18.33° C | 98% | 1011.7 hPa | 0.25 mm | - | - | - |
| 1778086203 | 18.33° C | 98% | 1011.7 hPa | 0.51 mm | - | - | - |
| 1778086083 | 18.33° C | 97% | 1011 hPa | 0.76 mm | - | - | - |
| 1778085963 | 18.33° C | 97% | 1011 hPa | 0.76 mm | - | - | - |
| 1778085844 | 18.33° C | 98% | 1011.1 hPa | 0.76 mm | - | - | - |
| 1778085724 | 18.33° C | 98% | 1011 hPa | 1.02 mm | - | - | - |
| 1778085604 | 18.33° C | 98% | 1011 hPa | 1.02 mm | - | - | - |
| 1778085484 | 18.33° C | 97% | 1011 hPa | 1.27 mm | - | - | - |
| 1778085363 | 18.33° C | 97% | 1011 hPa | 1.52 mm | - | - | - |
| 1778085243 | 18.33° C | 97% | 1011 hPa | 1.52 mm | - | - | - |
| 1778085123 | 18.33° C | 98% | 1010.7 hPa | 1.78 mm | - | - | - |
| 1778085004 | 18.33° C | 97% | 1010.7 hPa | 1.78 mm | - | - | - |
| 1778084884 | 18.33° C | 98% | 1010.7 hPa | 2.03 mm | - | - | - |
| 1778084764 | 18.33° C | 98% | 1010.9 hPa | 2.03 mm | - | - | - |
| 1778084643 | 18.89° C | 99% | 1010.9 hPa | 2.29 mm | - | - | - |
| 1778084523 | 18.89° C | 99% | 1010.9 hPa | 2.54 mm | - | - | - |
| 1778084403 | 18.89° C | 99% | 1010.9 hPa | 2.79 mm | - | - | - |
| 1778084283 | 18.89° C | 99% | 1011.1 hPa | 2.79 mm | - | - | - |
| 1778084164 | 18.89° C | 100% | 1011.1 hPa | 3.05 mm | - | - | - |
| 1778084044 | 18.89° C | 100% | 1011 hPa | 3.05 mm | - | - | - |
| 1778083924 | 18.33° C | 100% | 1011 hPa | 3.3 mm | - | - | - |
| 1778083803 | 18.33° C | 100% | 1011 hPa | 3.56 mm | - | - | - |
* Rain latest hour (hover to see other rain measurements)
** Current wind speed in m/s (hover to see current wind gust speed)